Skip Page Navigation
NASA JPL Caltech
NASA Logo - Jet Propulsion Laboratory + View the NASA Portal
+ Near-Earth Object (NEO) Program
Search JPL
JPL Home Earth Solar System Stars & Galaxies Technology
JPL Solar System Dynamics
BODIES ORBITS EPHEMERIDES TOOLS PHYSICAL DATA DISCOVERY FAQ SITE MAP
JPL Small-Body Database Browser
Search: [ help ]  
11971 (1994 UJ2)
Classification: Main-belt Asteroid          SPK-ID: 2011971
Ephemeris | Orbit Diagram | Orbital Elements | Physical Parameters | Discovery Circumstances | Close-Approach Data ]

[ show orbit diagram ]
Orbital Elements at Epoch 2457000.5 (2014-Dec-09.0) TDB
Reference: JPL 6 (heliocentric ecliptic J2000)
 Element Value Uncertainty (1-sigma)   Units 
e .1523045734230285 1.0896e-07  
a 2.978307386732348 4.4451e-08 AU
q 2.524697550673423 3.3837e-07 AU
i 14.00331791909764 9.9618e-06 deg
node 55.68861217226468 3.6867e-05 deg
peri 326.2575099640605 4.623e-05 deg
M 347.5084473327135 3.6308e-05 deg
tp 2457065.642830861348
(2015-Feb-12.14283086)
0.00019036 JED
period 1877.38223859882
5.14
4.203e-05
1.151e-07
d
yr
n .1917563683081849 4.293e-09 deg/d
Q 3.431917222791274 5.1222e-08 AU
  Orbit Determination Parameters
   # obs. used (total)      788  
   data-arc span      16732 days (45.81 yr)  
   first obs. used      1968-10-15  
   last obs. used      2014-08-07  
   planetary ephem.      DE431  
   SB-pert. ephem.      SB431-BIG16  
   condition code      0  
   fit RMS      .50285  
   data source      ORB  
   producer      Otto Matic  
   solution date      2014-Aug-13 14:19:38  

Additional Information
 Earth MOID = 1.54187 AU 
 T_jup = 3.198 
[ show covariance matrix ]

Ephemeris | Orbit Diagram | Orbital Elements | Physical Parameters | Discovery Circumstances | Close-Approach Data ]

Physical Parameter Table
Parameter Symbol Value Units Sigma Reference Notes
absolute magnitude H 12.5 mag n/a MPO266022  

11971 (1994 UJ2)          Discovered 1994-Oct-31 by Ueda, S., Kaneda, H. at Kushiro (399)
Reference: 19991026/Numbers.arcLast Updated: 2004-04-19

[ show close-approach data ]
Alternate Designations
 1994 UJ2 = 1968 TF = 1979 YU9 = 1989 UR6 = 1989 YL8 
Ephemeris | Orbit Diagram | Orbital Elements | Physical Parameters | Discovery Circumstances | Close-Approach Data ]
ABOUT SSD CREDITS/AWARDS PRIVACY/COPYRIGHT GLOSSARY LINKS
FirstGov 2014-Aug-27 11:06 UT
(server date/time)  
NASA Home Page
Site Manager:   Donald K. Yeomans
Webmaster  Alan B. Chamberlin